Theta_e
308 307 308 309 309 309 309 310 312 312 314 316 316 321 328 331 338 340 340 338 338 338 337 334 330 329 328 329 331 332 332 331 329 328 327 328 334 335 335 336 335 333 334
308 307 307 308 308 308 308 308 310 310 312 313 316 316 317 326 333 338 338 338 337 338 338 336 334 331 329 329 330 332 331 330 329 327 325 328 329 332 335 335 336 336 334
308 307 306 306 306 306 306 307 308 308 310 311 313 316 320 322 329 336 337 338 338 338 337 337 336 334 332 329 330 331 331 329 328 328 324 327 328 326 331 335 335 336 336
307 307 307 306 306 306 305 305 306 307 307 309 311 313 316 319 320 321 323 331 337 337 337 337 336 336 334 332 329 330 329 330 326 328 328 324 324 331 331 335 336 336 337
306 306 306 306 306 306 306 305 304 305 306 307 308 310 312 313 313 317 319 323 330 335 336 337 335 336 335 335 333 330 330 328 328 325 327 327 325 330 332 331 337 336 335
304 305 305 305 305 305 305 305 303 303 304 305 307 308 309 310 312 313 315 318 321 325 335 335 336 335 335 335 335 334 332 331 328 326 325 325 326 327 328 331 329 331 336
304 304 305 305 305 304 304 305 304 302 302 303 304 306 307 308 309 311 311 313 315 318 323 328 333 334 335 335 336 335 334 333 332 330 328 326 325 325 325 326 328 329 331
304 303 305 305 305 304 303 304 303 302 301 302 302 304 306 306 307 308 309 311 313 314 317 321 324 333 333 335 334 334 334 334 334 333 332 330 329 327 327 326 326 330 330
304 303 306 306 304 303 303 304 303 301 301 301 301 301 304 305 306 306 308 309 310 311 313 315 321 325 331 333 330 333 334 333 334 334 333 333 332 331 329 329 328 330 334
305 305 306 306 304 303 303 304 303 301 301 301 300 300 301 303 305 306 306 306 309 309 310 313 317 319 324 328 333 333 333 333 333 333 334 334 334 333 332 331 331 331 332
305 305 305 306 304 303 303 303 303 302 301 300 300 300 300 301 303 305 305 305 305 308 309 311 313 315 316 319 323 329 333 333 333 333 333 334 334 334 333 333 332 332 334
305 304 305 304 304 303 302 303 302 301 300 299 299 299 300 300 301 302 303 304 304 305 307 309 310 313 314 314 317 319 323 332 333 333 333 333 333 333 333 334 333 333 333
304 304 304 304 304 303 302 302 301 300 300 299 298 298 299 299 300 301 301 302 303 304 304 306 307 309 311 311 311 311 315 320 323 332 333 333 331 330 333 333 334 334 334
303 304 304 304 304 303 302 302 301 300 299 298 297 298 298 299 299 300 300 300 300 303 303 304 305 307 308 305 304 303 305 308 312 320 327 333 333 332 332 332 332 332 332
302 303 303 303 303 303 302 301 300 300 299 298 297 297 297 298 298 299 299 299 299 300 302 301 303 304 306 300 299 300 302 306 307 312 317 322 331 332 332 331 329 330 331
302 302 302 302 303 302 301 300 300 299 298 298 297 297 297 297 297 298 298 298 299 299 300 301 301 302 304 301 296 297 301 304 306 308 310 315 320 323 330 330 331 329 326
303 302 302 302 302 302 301 300 300 299 298 297 297 296 296 296 296 297 297 298 298 298 298 298 299 300 300 298 294 294 300 301 303 304 305 306 309 314 318 322 330 330 327
303 302 302 301 301 301 300 300 299 298 298 297 296 295 295 296 296 296 296 297 296 296 296 296 297 297 298 297 295 292 299 300 300 300 301 302 302 304 305 308 314 320 328
302 302 302 301 300 300 300 299 299 298 297 297 296 294 295 295 295 295 295 295 294 294 295 295 296 296 295 296 294 291 295 298 299 297 298 298 301 300 301 301 304 311 318
302 302 301 300 300 300 299 299 298 297 297 295 293 293 294 294 295 294 295 294 294 294 294 294 295 295 295 293 291 290 292 294 294 296 298 296 296 296 298 297 296 299 305
301 301 301 300 300 299 298 298 297 296 293 292 292 293 293 294 293 293 294 293 293 292 293 293 294 294 294 293 291 289 290 291 291 293 295 296 293 294 299 298 298 297 298
301 301 301 300 299 299 298 297 295 293 291 292 292 293 293 292 292 292 292 292 291 290 290 291 291 292 293 292 291 290 289 288 289 290 292 292 290 293 296 297 297 298 300
299 300 301 300 299 298 297 294 293 291 291 291 292 292 292 292 292 292 291 290 290 290 289 290 290 290 291 291 291 290 289 289 288 289 288 289 290 291 293 296 298 297 296
298 300 300 300 299 298 294 292 291 291 291 291 291 292 291 291 291 291 290 290 289 289 289 289 289 289 289 289 290 289 289 289 289 289 288 289 291 292 291 292 294 294 295
297 299 300 299 298 295 292 291 291 291 291 291 291 291 291 291 291 290 290 289 289 288 287 287 287 287 288 288 287 287 288 288 288 288 288 289 290 290 290 290 290 291 292
298 299 298 297 295 293 292 291 291 291 290 290 291 291 290 291 290 290 290 289 288 287 287 286 286 286 287 287 287 287 287 287 287 288 289 289 289 289 290 290 290 290 290
Wind_Speed
18 21 22 22 23 24 26 25 25 26 23 22 23 16 16 16 24 25 27 28 27 24 27 27 26 26 27 27 24 22 22 19 17 16 17 17 16 17 17 17 18 19 18
18 23 25 24 25 25 25 26 25 25 22 22 19 15 23 18 19 25 31 32 29 32 29 30 29 28 27 27 27 25 23 23 20 18 17 9 18 21 23 22 21 20 20
15 20 22 24 24 26 26 26 25 25 23 23 20 20 17 15 14 12 21 34 34 32 37 33 32 29 28 28 28 27 27 25 23 24 19 7 10 15 19 24 24 23 22
15 18 21 22 23 23 24 25 25 23 23 23 22 22 19 18 18 23 24 21 31 37 35 35 31 33 29 28 28 27 28 27 27 22 28 29 18 7 8 13 21 25 24
14 17 18 18 20 21 22 24 25 23 23 23 22 21 20 20 21 21 23 22 17 25 30 33 28 31 30 29 27 26 28 29 29 29 22 25 29 24 17 10 10 18 25
15 16 15 15 17 20 21 21 25 24 23 23 22 21 21 22 22 22 22 22 22 21 24 28 31 33 29 29 28 28 30 30 30 31 29 27 23 26 23 15 21 18 15
14 16 16 15 15 18 19 21 23 24 24 23 23 22 21 20 21 20 22 25 25 24 18 17 25 24 27 26 26 27 29 31 32 31 32 32 32 29 27 26 24 20 21
14 16 13 13 15 16 17 18 21 23 23 24 24 22 22 21 20 21 21 20 22 23 21 25 17 24 27 25 27 28 30 30 32 34 33 33 33 32 32 30 24 14 23
14 14 13 12 13 14 16 17 19 21 23 23 23 23 22 22 22 21 19 20 20 22 23 22 20 15 18 29 30 28 32 33 31 32 34 35 33 32 33 33 31 25 14
12 14 14 11 12 13 15 16 18 19 21 22 23 23 23 23 22 21 21 21 21 22 23 23 21 18 14 17 25 33 36 34 34 33 31 32 32 34 33 33 33 31 29
11 14 13 11 12 12 14 16 18 20 22 22 23 24 24 23 22 22 22 21 21 21 21 21 22 20 20 18 16 16 32 32 32 35 36 33 33 32 32 33 33 33 32
10 13 10 10 13 11 13 15 18 21 21 21 22 23 23 24 23 23 23 23 22 21 20 20 20 21 19 18 17 19 22 26 34 38 35 35 30 35 35 33 33 32 33
10 11 9 11 14 12 12 14 16 19 20 21 22 22 22 22 23 24 24 24 24 23 21 19 18 19 18 15 17 17 20 19 20 31 39 41 39 37 34 32 31 31 33
10 9 9 10 12 12 11 13 16 18 20 21 22 22 22 22 22 23 23 23 23 23 21 20 18 16 15 15 19 20 21 22 21 24 20 37 36 35 36 36 29 28 28
10 10 10 11 13 12 11 12 14 17 18 19 20 19 19 20 21 21 22 23 23 22 21 19 19 17 13 17 22 22 23 22 22 24 24 28 30 40 39 37 30 32 26
11 11 12 13 14 14 11 12 14 16 16 17 18 19 19 19 20 20 21 21 22 23 21 19 17 19 16 17 23 24 19 19 19 21 23 23 30 26 42 44 42 39 28
11 11 13 15 14 12 10 12 14 15 16 16 17 18 20 20 21 21 20 20 21 21 21 20 19 18 17 22 27 28 16 16 16 18 20 23 21 26 23 23 42 48 45
10 12 13 15 13 11 11 12 15 16 16 16 17 18 19 20 20 20 20 20 20 20 21 21 20 19 18 22 27 30 19 17 16 16 17 18 20 18 24 28 25 25 47
11 12 12 12 12 12 12 14 16 16 16 16 18 18 17 19 20 20 19 19 20 21 20 20 21 20 20 20 25 26 22 20 19 18 16 17 17 20 26 26 25 32 35
13 13 12 12 11 11 11 14 16 15 16 17 18 17 17 18 20 20 19 18 19 20 21 21 20 20 19 20 24 24 22 23 25 21 18 19 20 29 28 25 19 22 29
18 16 13 13 12 10 11 13 15 15 14 15 16 17 17 18 17 18 19 19 19 20 20 21 21 19 19 20 20 22 21 23 27 24 23 20 27 29 27 24 21 19 26
22 19 16 14 12 11 11 14 14 13 14 15 16 17 17 18 18 19 20 19 19 20 20 20 21 19 19 20 20 22 22 24 23 26 25 27 32 27 23 22 21 22 22
25 21 18 14 11 11 11 13 12 12 14 15 17 17 18 19 18 19 20 21 19 19 20 19 20 22 23 23 22 23 26 24 27 24 29 32 30 26 23 23 24 22 18
23 20 17 15 12 11 11 12 12 13 15 16 17 18 19 19 19 18 18 19 20 21 21 21 22 24 24 23 23 27 28 27 28 29 31 28 23 22 21 23 22 24 24
23 19 18 14 12 10 10 11 12 13 16 17 18 18 18 20 21 20 19 20 21 21 25 26 25 24 25 25 30 31 31 30 32 35 28 22 21 21 21 23 22 24 25
21 16 15 12 11 10 10 11 12 13 16 17 18 18 20 21 22 22 25 22 24 23 25 26 27 28 28 30 30 29 29 30 30 28 22 19 19 19 20 20 21 21 23
Wind_Direction
20 13 12 12 11 9 3 2 358 356 356 352 352 339 310 307 261 246 231 234 234 233 228 227 226 225 225 224 225 226 228 230 231 238 240 242 242 239 235 229 225 222 219
15 13 9 10 11 9 7 2 359 357 356 350 343 332 324 303 284 263 246 241 240 240 230 228 228 225 226 226 222 220 225 230 226 227 239 239 237 237 237 234 228 225 223
12 8 8 8 8 10 6 3 0 357 355 353 346 340 336 336 328 288 266 247 245 240 234 228 228 229 224 225 224 222 221 226 228 223 231 230 248 249 223 229 232 228 224
16 10 3 3 7 7 5 2 360 1 358 356 352 348 344 337 327 315 301 322 249 246 241 233 228 228 227 228 225 224 227 226 231 224 232 242 267 255 246 217 230 232 230
7 4 2 357 355 358 -0 359 359 358 0 360 356 350 344 338 332 329 327 313 330 245 242 238 236 230 228 230 232 230 225 227 232 234 228 235 238 240 262 269 205 228 233
355 349 354 351 351 350 353 356 357 358 358 359 358 353 347 340 338 339 336 336 335 317 278 237 234 226 228 229 233 235 236 233 233 235 236 234 230 235 235 242 254 256 235
343 334 341 346 347 350 349 349 353 354 355 356 355 355 350 344 338 339 336 335 337 335 317 314 250 239 233 233 235 237 237 235 235 234 235 237 239 242 243 244 248 253 244
328 326 330 334 343 351 351 349 349 349 353 354 353 351 352 348 343 338 334 333 333 328 323 317 335 245 250 241 241 239 240 237 235 237 236 238 241 242 241 242 245 248 248
334 325 328 332 339 350 355 350 348 348 350 351 350 349 347 348 346 342 338 332 330 328 324 324 319 295 278 252 258 252 242 238 236 235 238 240 240 241 241 243 240 239 245
340 340 331 331 335 343 350 351 351 349 347 348 348 346 344 342 343 344 342 337 331 329 327 327 323 322 302 309 257 247 245 236 234 237 238 238 241 243 239 237 240 239 243
338 334 328 330 328 335 347 351 350 348 346 346 345 344 342 341 340 342 342 340 336 333 329 326 323 322 329 318 314 289 241 237 234 238 238 239 240 244 243 239 237 237 238
339 338 335 331 339 336 343 349 350 348 344 342 342 341 339 340 339 337 338 340 338 335 332 330 329 326 328 335 332 319 299 257 232 236 236 233 235 242 245 245 241 236 239
334 335 324 327 335 330 336 343 348 346 342 340 339 339 338 338 337 337 336 336 337 337 335 335 333 333 330 329 331 325 312 302 289 252 235 240 245 245 246 243 241 244 244
319 319 309 313 322 321 321 331 339 343 340 339 339 337 337 336 334 333 334 337 336 334 336 336 334 335 335 338 338 331 324 314 308 283 284 239 230 238 233 238 243 246 251
320 321 314 313 315 317 309 320 331 336 335 333 333 335 333 332 331 333 332 334 336 334 333 336 336 338 341 357 348 338 327 317 311 305 302 282 255 240 235 231 239 248 242
311 321 313 310 311 314 306 318 326 330 330 330 328 329 330 332 332 331 330 332 335 335 332 333 334 335 338 337 350 347 335 327 318 312 306 308 286 314 264 253 239 238 240
297 310 317 316 313 308 304 309 321 324 326 327 327 328 328 329 332 330 329 331 334 333 332 331 329 329 331 332 343 348 335 331 330 329 323 315 307 297 313 297 256 248 242
282 300 312 316 311 305 302 310 315 318 320 322 325 325 325 324 327 329 329 330 331 331 330 329 330 328 327 328 329 343 331 324 329 331 327 325 322 324 318 304 291 275 241
285 288 299 303 299 298 303 305 309 314 316 320 321 322 322 319 322 324 325 325 326 326 325 326 325 328 328 326 330 344 333 323 323 325 326 323 323 327 335 324 303 288 274
271 271 282 292 287 288 294 299 307 313 314 319 318 317 316 315 316 318 319 320 320 319 321 321 321 323 324 326 333 343 335 326 326 322 319 323 321 326 333 329 311 291 289
279 268 262 272 280 279 286 295 305 309 316 313 313 313 313 314 312 315 316 316 317 317 318 318 319 320 320 321 325 339 340 332 324 320 319 317 317 326 323 333 322 304 302
279 260 252 263 267 270 282 294 299 307 311 311 310 310 310 312 310 314 314 314 316 314 314 316 317 318 317 318 319 324 331 333 326 318 315 312 318 322 321 322 328 332 319
280 266 251 259 256 262 277 286 293 302 307 307 307 308 308 309 309 309 311 313 315 312 312 312 314 315 317 316 317 320 323 327 327 317 315 315 321 323 321 323 336 347 331
274 267 250 248 254 262 269 276 289 298 303 303 306 307 307 311 309 310 307 307 309 309 308 308 310 312 311 312 315 319 321 325 326 323 320 320 321 317 322 326 330 333 342
276 262 244 244 253 261 265 277 287 296 298 300 301 302 303 308 308 306 305 303 302 300 301 301 303 305 305 306 311 315 315 318 319 319 315 318 322 324 325 328 327 329 332
270 240 237 242 252 254 266 279 288 293 295 296 298 299 301 301 300 303 305 302 301 298 294 297 298 300 296 303 308 311 312 314 315 310 300 308 311 314 316 317 318 324 322